Tracking 35331 objects as of 17-Sep-2026
HD Live streaming from Space Station
objects crossing your sky now

SL-12 PLAT


SL-12 PLAT is no longer on orbit


NORAD ID: 26245
Int'l Code: 2000-019C
Launch date: April 17, 2000
Source: Commonwealth of Independent States (former USSR) (CIS)
Launch site: TYURATAM MISSILE AND SPACE COMPLEX (TTMTR)
Decay date: 2000-04-19
Your satellite tracking list
Your tracking list is empty




NASA's NSSDC Master Catalog

Two Line Element Set (TLE):
1 26245U 00019C   00109.42144130  .42276367  12262-4  20597-3 0  9998
2 26245 051.6271 169.3464 0032989 157.5569 204.1927 16.52969442    97
Source of the keplerian elements: AFSPC